This is the latest recevied weather packets stored in our database for station/object KE8RXN. If no packets are shown the sender has not sent any weather packets the latest 10 day(s).
| Time | Temp. | Humidity | Pressure | Rain* | Wind** | Luminosity | Snow |
|---|---|---|---|---|---|---|---|
| 1777848784 | 13.89° C | 60% | 1010.9 hPa | 0 mm | - | 69 W/m² | - |
| 1777848481 | 13.89° C | 60% | 1010.7 hPa | 0 mm | - | 79 W/m² | - |
| 1777848179 | 13.89° C | 60% | 1010.9 hPa | 0 mm | - | 92 W/m² | - |
| 1777847876 | 13.89° C | 60% | 1010.9 hPa | 0 mm | - | 87 W/m² | - |
| 1777847574 | 13.33° C | 60% | 1011.1 hPa | 0 mm | - | 85 W/m² | - |
| 1777847269 | 13.33° C | 60% | 1011.4 hPa | 0 mm | - | 98 W/m² | - |
| 1777846968 | 13.33° C | 61% | 1011.4 hPa | 0 mm | - | 87 W/m² | - |
| 1777846666 | 13.89° C | 60% | 1011.6 hPa | 0 mm | - | 94 W/m² | - |
| 1777846364 | 13.89° C | 60% | 1011.7 hPa | 0 mm | - | 261 W/m² | - |
| 1777846060 | 13.89° C | 62% | 1011.6 hPa | 0 mm | - | 98 W/m² | - |
| 1777845757 | 13.89° C | 61% | 1011.7 hPa | 0 mm | - | 325 W/m² | - |
| 1777845453 | 12.78° C | 63% | 1011.9 hPa | 0 mm | - | 222 W/m² | - |
| 1777845151 | 12.78° C | 65% | 1011.9 hPa | 0 mm | - | 152 W/m² | - |
| 1777844849 | 12.78° C | 65% | 1012.2 hPa | 0 mm | - | 146 W/m² | - |
| 1777844545 | 12.22° C | 66% | 1011.9 hPa | 0 mm | - | 141 W/m² | - |
| 1777844243 | 12.22° C | 66% | 1011.9 hPa | 0 mm | - | 124 W/m² | - |
| 1777843940 | 12.22° C | 67% | 1012.3 hPa | 0 mm | - | 126 W/m² | - |
| 1777843637 | 12.22° C | 67% | 1012.2 hPa | 0 mm | - | 137 W/m² | - |
| 1777843335 | 11.67° C | 68% | 1012.4 hPa | 0 mm | - | 117 W/m² | - |
| 1777843032 | 11.67° C | 68% | 1012.3 hPa | 0 mm | - | 115 W/m² | - |
| 1777842728 | 11.67° C | 69% | 1012.2 hPa | 0 mm | - | 113 W/m² | - |
| 1777842424 | 11.67° C | 69% | 1012.3 hPa | 0 mm | - | 115 W/m² | - |
| 1777842121 | 11.11° C | 70% | 1012.2 hPa | 0 mm | - | 113 W/m² | - |
| 1777841816 | 11.11° C | 70% | 1012.3 hPa | 0 mm | - | 107 W/m² | - |
| 1777841513 | 11.11° C | 71% | 1012.3 hPa | 0 mm | - | 95 W/m² | - |
* Rain latest hour (hover to see other rain measurements)
** Current wind speed in m/s (hover to see current wind gust speed)